Back to catalog

NOAA 16 DEB

AliveSSO
NORAD 41361·DEBRIS·🇺🇸 United States

Launched Sep 21, 2000 from Vandenberg Space Force Base

Loading…

Next Passes (next 24 hours)

TLE

FreshSource: Space-Track

Epoch: Sep 13, 2026, 01:20 UTC

1 41361U 00055JE  26256.05607543  .00002013  00000-0  93025-3 0  9994
2 41361  98.7450 298.5898 0029173   3.2464 356.8898 14.21802664545027

Track NOAA 16 DEB in real time with AllMySat

Download on the App Store